When you browse on this site, cookies collect data to enhance your experience and personalize the content and advertising you see.
Visit our Privacy Policy to learn more. By continuing to use the site, you agree to this use of cookies and data.
  • Em Portugal
  • Lista de países
  • Para 7 dias
  • Temperatura da água
  • Mapas de satélite
  • Mapa do tempo
  • Widgets de tempo
  • user-avatar
    Iniciar Sessão

    Previsão horária em Otoka

    Hoje, 25 Março, Segunda-feira

    Tempo Temperatura Precipitação Vento Pressão Humidade
    00:00 +7°C° 0.2 mm 0 m/s 743 mmHg 61%
    01:00 +6°C° 0.2 mm 0 m/s 742 mmHg 66%
    02:00 +6°C° 0.2 mm 0 m/s 742 mmHg 69%
    03:00 +6°C° 0.2 mm 0 m/s 741 mmHg 73%
    04:00 +7°C° 0.2 mm 1 m/s 741 mmHg 77%
    05:00 +7°C° 0.2 mm 1 m/s 741 mmHg 78%
    06:00 +7°C° 0.2 mm 1 m/s 740 mmHg 79%
    07:00 +7°C° 0.2 mm 1 m/s 740 mmHg 80%
    08:00 +7°C° 0 mm 2 m/s 740 mmHg 72%
    09:00 +8°C° 0 mm 2 m/s 740 mmHg 64%
    10:00 +9°C° 0 mm 2 m/s 739 mmHg 56%
    11:00 +9°C° 0.1 mm 3 m/s 739 mmHg 57%
    12:00 +9°C° 0.1 mm 3 m/s 739 mmHg 58%
    13:00 +8°C° 0.1 mm 4 m/s 738 mmHg 59%
    14:00 +8°C° 0.3 mm 4 m/s 738 mmHg 60%
    15:00 +8°C° 0.3 mm 5 m/s 738 mmHg 61%
    16:00 +7°C° 0.3 mm 5 m/s 738 mmHg 62%
    17:00 +7°C° 0.1 mm 5 m/s 738 mmHg 64%
    18:00 +6°C° 0.1 mm 4 m/s 738 mmHg 66%
    19:00 +5°C° 0.1 mm 3 m/s 739 mmHg 68%
    20:00 +5°C° 0.1 mm 3 m/s 739 mmHg 71%
    21:00 +4°C° 0.1 mm 3 m/s 740 mmHg 75%
    22:00 +3°C° 0.1 mm 3 m/s 741 mmHg 79%
    23:00 +3°C° 0.3 mm 3 m/s 741 mmHg 79%

    Amanhã, 26 Março, Terça-feira

    Tempo Temperatura Precipitação Vento Pressão Humidade
    00:00 +3°C° 0.3 mm 3 m/s 742 mmHg 80%
    01:00 +3°C° 0.3 mm 4 m/s 743 mmHg 80%
    02:00 +1°C° 0 mm 4 m/s 743 mmHg 83%
    03:00 +1°C° 0 mm 4 m/s 743 mmHg 86%
    04:00 0°C° 0 mm 4 m/s 744 mmHg 89%
    05:00 0°C° 0 mm 4 m/s 744 mmHg 88%
    06:00 0°C° 0 mm 5 m/s 745 mmHg 86%
    07:00 0°C° 0 mm 5 m/s 746 mmHg 85%
    08:00 +1°C° 0 mm 5 m/s 746 mmHg 82%
    09:00 +1°C° 0 mm 5 m/s 746 mmHg 78%
    10:00 +1°C° 0 mm 5 m/s 747 mmHg 75%
    11:00 +3°C° 0 mm 5 m/s 746 mmHg 68%
    12:00 +4°C° 0 mm 6 m/s 746 mmHg 61%
    13:00 +5°C° 0 mm 6 m/s 746 mmHg 53%
    14:00 +5°C° 0 mm 7 m/s 745 mmHg 54%
    15:00 +5°C° 0 mm 7 m/s 745 mmHg 55%
    16:00 +5°C° 0 mm 7 m/s 745 mmHg 56%
    17:00 +5°C° 0.1 mm 7 m/s 745 mmHg 59%
    18:00 +4°C° 0.1 mm 6 m/s 745 mmHg 61%
    19:00 +3°C° 0.1 mm 5 m/s 745 mmHg 64%
    20:00 +3°C° 0 mm 5 m/s 746 mmHg 67%
    21:00 +2°C° 0 mm 5 m/s 746 mmHg 69%
    22:00 +1°C° 0 mm 5 m/s 746 mmHg 71%
    23:00 +1°C° 0.1 mm 4 m/s 747 mmHg 73%

    Depois de amanhã, 27 Março, Quarta-feira

    Tempo Temperatura Precipitação Vento Pressão Humidade
    00:00 +1°C° 0.1 mm 4 m/s 748 mmHg 74%
    01:00 +1°C° 0.1 mm 4 m/s 748 mmHg 76%
    02:00 0°C° 0 mm 3 m/s 749 mmHg 76%
    03:00 -1°C° 0 mm 3 m/s 749 mmHg 77%
    04:00 -2°C° 0 mm 2 m/s 749 mmHg 77%
    05:00 -2°C° 0 mm 2 m/s 750 mmHg 70%
    06:00 -1°C° 0 mm 2 m/s 750 mmHg 64%
    07:00 -1°C° 0 mm 2 m/s 751 mmHg 57%
    08:00 +2°C° 0 mm 2 m/s 751 mmHg 51%
    09:00 +2°C° 0 mm 3 m/s 751 mmHg 44%
    10:00 +3°C° 0 mm 3 m/s 752 mmHg 38%
    11:00 +4°C° 0 mm 3 m/s 752 mmHg 36%
    12:00 +5°C° 0 mm 3 m/s 752 mmHg 34%
    13:00 +7°C° 0 mm 3 m/s 752 mmHg 32%
    14:00 +7°C° 0 mm 3 m/s 752 mmHg 35%
    15:00 +7°C° 0 mm 3 m/s 752 mmHg 38%
    16:00 +8°C° 0 mm 3 m/s 752 mmHg 41%
    17:00 +7°C° 0 mm 2 m/s 752 mmHg 47%
    18:00 +6°C° 0 mm 2 m/s 752 mmHg 53%
    19:00 +6°C° 0 mm 1 m/s 752 mmHg 59%
    20:00 +6°C° 0 mm 1 m/s 753 mmHg 61%
    21:00 +6°C° 0 mm 1 m/s 753 mmHg 62%
    22:00 +5°C° 0 mm 1 m/s 753 mmHg 63%
    23:00 +5°C° 0 mm 1 m/s 754 mmHg 65%

    28 Março, Quinta-feira

    Tempo Temperatura Precipitação Vento Pressão Humidade
    00:00 +5°C° 0 mm 1 m/s 754 mmHg 67%
    01:00 +4°C° 0 mm 2 m/s 754 mmHg 68%
    02:00 +4°C° 0 mm 2 m/s 754 mmHg 70%
    03:00 +5°C° 0 mm 1 m/s 754 mmHg 71%
    04:00 +5°C° 0 mm 1 m/s 754 mmHg 72%
    05:00 +5°C° 0 mm 1 m/s 754 mmHg 73%
    06:00 +5°C° 0 mm 1 m/s 754 mmHg 75%
    07:00 +6°C° 0 mm 1 m/s 755 mmHg 76%
    08:00 +7°C° 0 mm 1 m/s 755 mmHg 73%
    09:00 +8°C° 0 mm 1 m/s 755 mmHg 71%
    10:00 +9°C° 0 mm 1 m/s 755 mmHg 69%
    11:00 +10°C° 0.1 mm 1 m/s 755 mmHg 65%
    12:00 +11°C° 0.1 mm 1 m/s 755 mmHg 61%
    13:00 +10°C° 0.1 mm 0 m/s 755 mmHg 57%
    14:00 +11°C° 0 mm 1 m/s 755 mmHg 57%
    15:00 +12°C° 0 mm 1 m/s 755 mmHg 56%
    16:00 +12°C° 0 mm 1 m/s 755 mmHg 55%
    17:00 +10°C° 0 mm 1 m/s 755 mmHg 60%
    18:00 +9°C° 0 mm 1 m/s 755 mmHg 65%
    19:00 +8°C° 0 mm 1 m/s 755 mmHg 70%
    20:00 +7°C° 0 mm 1 m/s 755 mmHg 72%
    21:00 +7°C° 0 mm 1 m/s 756 mmHg 74%
    22:00 +7°C° 0 mm 1 m/s 756 mmHg 76%
    23:00 +6°C° 0 mm 1 m/s 756 mmHg 78%

    29 Março, Sexta-feira

    Tempo Temperatura Precipitação Vento Pressão Humidade
    00:00 +6°C° 0 mm 1 m/s 756 mmHg 80%
    01:00 +4°C° 0 mm 0 m/s 756 mmHg 81%
    02:00 +4°C° 0 mm 0 m/s 756 mmHg 82%
    03:00 +4°C° 0 mm 0 m/s 756 mmHg 83%
    04:00 +3°C° 0 mm 0 m/s 756 mmHg 85%
    05:00 +4°C° 0 mm 0 m/s 756 mmHg 82%
    06:00 +5°C° 0 mm 0 m/s 756 mmHg 79%
    07:00 +6°C° 0 mm 0 m/s 756 mmHg 76%
    08:00 +7°C° 0 mm 0 m/s 756 mmHg 69%
    09:00 +9°C° 0 mm 0 m/s 756 mmHg 63%
    10:00 +11°C° 0 mm 0 m/s 756 mmHg 57%
    11:00 +12°C° 0 mm 0 m/s 756 mmHg 53%
    12:00 +13°C° 0 mm 1 m/s 755 mmHg 49%
    13:00 +14°C° 0 mm 1 m/s 755 mmHg 45%
    14:00 +14°C° 0 mm 1 m/s 754 mmHg 45%
    15:00 +14°C° 0 mm 1 m/s 754 mmHg 44%
    16:00 +14°C° 0 mm 1 m/s 754 mmHg 43%
    17:00 +13°C° 0 mm 1 m/s 754 mmHg 47%
    18:00 +10°C° 0 mm 0 m/s 754 mmHg 52%
    19:00 +9°C° 0 mm 0 m/s 753 mmHg 56%
    20:00 +8°C° 0 mm 0 m/s 753 mmHg 58%
    21:00 +8°C° 0 mm 0 m/s 753 mmHg 61%
    22:00 +8°C° 0 mm 1 m/s 753 mmHg 63%
    23:00 +8°C° 0 mm 1 m/s 753 mmHg 65%

    30 Março, Sábado

    Tempo Temperatura Precipitação Vento Pressão Humidade
    00:00 +7°C° 0 mm 1 m/s 753 mmHg 67%
    01:00 +7°C° 0 mm 1 m/s 753 mmHg 69%
    02:00 +6°C° 0 mm 1 m/s 753 mmHg 71%
    03:00 +6°C° 0 mm 1 m/s 753 mmHg 72%
    04:00 +6°C° 0 mm 1 m/s 752 mmHg 74%
    05:00 +6°C° 0 mm 1 m/s 752 mmHg 72%
    06:00 +7°C° 0 mm 1 m/s 752 mmHg 70%
    07:00 +8°C° 0 mm 1 m/s 752 mmHg 68%
    08:00 +9°C° 0 mm 1 m/s 752 mmHg 62%
    09:00 +11°C° 0 mm 1 m/s 752 mmHg 57%
    10:00 +13°C° 0 mm 2 m/s 751 mmHg 51%
    11:00 +14°C° 0 mm 2 m/s 751 mmHg 48%
    12:00 +15°C° 0 mm 2 m/s 750 mmHg 45%
    13:00 +15°C° 0 mm 1 m/s 750 mmHg 42%
    14:00 +15°C° 0 mm 2 m/s 749 mmHg 41%
    15:00 +15°C° 0 mm 2 m/s 748 mmHg 41%
    16:00 +15°C° 0 mm 2 m/s 748 mmHg 41%
    17:00 +14°C° 0 mm 1 m/s 748 mmHg 45%
    18:00 +12°C° 0 mm 1 m/s 747 mmHg 49%
    19:00 +11°C° 0 mm 1 m/s 747 mmHg 53%
    20:00 +10°C° 0 mm 1 m/s 747 mmHg 55%
    21:00 +10°C° 0 mm 1 m/s 747 mmHg 56%
    22:00 +8°C° 0 mm 2 m/s 747 mmHg 58%
    23:00 +8°C° 0 mm 2 m/s 747 mmHg 60%
    Mostrar mais